RH
12 13 14 15 17 17 16 15 16 16 15 15 15 15 14 14 12 11 15 17 17 18 18 18 18 15 12 11 13 15 16 15 12 9 9 13 17 15 13 14 14 14 16 19 20 21 16 12 12 12 16 16 13 12 14 15 13 16 22 24 24 19 13 12 13 14 14 14 14 12 15 20 14 17 21 17 18 19 20 26 30 31 31 30 34 35 35 37
11 13 13 14 17 17 15 15 16 15 14 14 15 15 14 13 12 14 16 17 17 18 17 16 17 16 13 10 12 14 15 13 10 10 12 15 15 13 13 13 14 15 14 15 17 18 14 10 9 10 11 13 12 11 14 15 13 17 19 21 23 18 12 12 13 13 14 15 16 14 15 16 17 18 15 18 20 17 26 35 34 34 32 31 35 35 36 37
13 14 15 16 17 16 15 16 16 14 13 13 14 14 13 14 14 16 17 16 18 19 16 14 14 15 13 11 13 14 17 14 10 11 13 13 13 12 11 11 12 13 12 11 11 14 14 12 11 11 9 10 11 11 14 14 13 17 19 19 17 13 11 13 16 16 17 17 16 15 15 15 17 18 17 22 21 22 41 47 39 38 33 31 35 34 36 36
17 17 17 17 16 15 15 16 15 14 13 13 14 14 15 16 18 19 19 18 19 20 18 13 11 14 13 14 14 15 19 16 10 12 12 11 12 11 10 9 9 9 10 10 12 14 15 15 13 13 14 13 12 13 15 14 13 16 18 17 13 11 10 13 17 17 18 18 15 14 14 15 16 17 19 20 22 36 48 41 33 31 28 30 35 35 36 36
19 18 17 16 15 15 16 15 14 14 14 13 14 15 16 17 18 18 19 19 18 19 19 12 9 10 10 13 15 15 22 18 11 11 10 11 13 12 11 10 8 8 9 12 14 13 14 14 12 14 15 13 12 15 15 12 14 17 16 14 12 11 11 15 16 14 18 17 15 14 13 16 17 18 21 22 32 45 42 30 27 27 28 31 34 36 36 35
19 17 16 15 16 17 16 14 14 15 15 15 15 15 16 16 16 15 15 16 16 18 18 13 10 13 11 11 14 16 22 18 11 9 7 9 12 11 11 10 9 10 11 13 12 11 11 10 10 10 12 14 13 15 15 12 16 21 18 13 12 15 14 17 16 15 19 18 15 16 15 16 17 19 23 27 34 36 31 29 32 33 34 35 35 37 35 34
18 16 15 14 17 16 14 13 14 14 14 15 15 15 15 14 13 11 11 12 14 16 16 11 9 13 13 12 12 11 13 13 8 7 6 7 9 10 10 9 10 13 14 13 11 11 10 9 10 8 13 17 14 17 18 13 18 22 21 15 11 15 16 18 19 17 18 17 16 15 15 14 18 24 25 25 26 25 27 30 33 38 40 39 38 37 35 35
16 15 14 14 16 15 13 13 13 13 13 15 14 14 14 13 10 8 8 9 12 12 13 10 7 11 13 16 16 8 8 10 6 6 6 6 8 9 9 9 12 15 14 12 13 13 10 11 11 10 18 18 13 21 21 17 25 25 19 16 13 14 14 16 17 15 14 15 15 13 13 16 22 26 23 23 22 21 27 30 32 38 40 40 39 36 35 34
15 14 14 15 15 14 13 12 12 13 13 13 12 13 13 11 9 8 7 6 8 8 8 8 8 9 9 14 17 11 10 9 6 6 5 6 8 8 9 8 11 16 14 10 10 12 11 12 12 13 18 15 14 21 20 22 30 24 19 19 17 15 13 14 13 11 13 15 15 14 14 18 24 24 23 24 20 20 27 31 34 37 40 40 38 36 35 31
15 15 15 15 15 15 13 12 12 12 12 12 11 11 12 11 10 9 8 5 5 6 8 9 9 10 9 13 15 12 11 9 7 7 6 7 8 8 9 8 10 16 16 8 6 10 12 13 13 14 16 15 19 24 22 22 22 19 23 23 19 17 14 13 12 11 14 15 15 16 16 19 23 23 24 23 18 22 30 33 36 39 40 39 37 35 32 29
16 17 16 16 16 15 13 12 12 11 11 10 10 10 10 10 9 10 9 6 6 7 8 9 9 10 8 8 11 12 10 9 8 8 8 9 9 9 8 7 9 14 16 9 5 7 9 11 11 14 18 18 20 29 27 16 16 22 24 27 25 17 12 12 13 13 14 15 16 17 17 20 22 23 25 22 20 25 32 34 36 38 39 37 35 32 29 28
17 17 17 18 17 15 13 11 11 10 10 9 8 9 8 8 7 7 8 6 6 6 7 7 8 14 13 8 11 13 10 9 10 9 10 9 8 9 7 8 9 11 14 9 5 6 8 10 11 14 19 20 23 35 31 14 17 25 23 29 28 17 13 12 13 14 14 15 16 18 23 25 25 25 25 22 22 27 31 34 36 38 38 34 31 29 29 29
18 18 18 17 16 14 11 9 10 9 8 8 7 7 7 7 7 7 6 6 6 5 7 7 8 13 14 11 12 13 11 10 11 11 10 8 8 8 7 8 8 9 9 7 6 8 11 13 16 18 18 22 25 27 24 15 19 25 24 27 23 21 20 13 15 16 15 16 14 22 32 31 28 26 26 25 24 28 32 34 36 37 35 31 29 29 30 30
19 19 17 16 15 12 10 10 10 8 8 8 8 8 8 8 8 8 7 7 7 7 8 9 11 13 12 12 13 12 12 12 12 11 9 8 10 11 9 8 9 8 6 6 7 8 14 16 19 22 18 21 25 26 28 23 21 22 24 27 24 28 25 14 18 18 16 17 13 24 34 30 29 27 27 27 26 29 32 34 36 37 34 29 27 28 28 29
18 17 15 14 14 12 11 11 11 10 9 10 10 10 8 9 8 8 8 7 7 9 10 10 15 17 13 11 12 12 13 14 12 11 10 9 12 13 10 9 8 7 6 8 8 8 15 17 19 22 18 18 24 32 36 25 18 21 29 33 28 30 27 18 20 19 18 18 14 26 34 29 29 29 29 30 28 31 33 34 36 35 30 25 25 26 27 28
17 15 13 12 12 12 11 11 12 12 11 12 12 10 8 8 8 8 8 7 7 8 10 12 15 18 16 12 11 12 13 14 13 12 12 10 11 10 10 10 8 7 8 10 11 11 14 16 21 23 18 18 22 28 29 25 25 26 31 35 29 30 32 25 23 21 19 20 20 26 31 29 29 29 30 31 30 31 33 34 34 30 27 25 26 26 27 28
16 13 11 11 12 12 12 13 13 12 12 11 12 11 9 8 8 8 8 8 9 9 11 12 12 15 16 12 12 13 13 14 13 12 12 10 10 9 11 12 8 9 12 12 13 13 15 16 20 22 18 19 23 25 29 34 36 33 33 34 29 29 33 30 26 24 23 27 29 26 25 28 29 29 31 32 31 32 33 34 32 29 27 26 26 27 27 28
15 11 10 11 12 12 12 13 11 10 9 9 10 10 9 9 8 8 9 8 9 13 17 15 13 18 20 13 13 14 12 15 13 12 12 11 11 12 14 13 10 12 14 14 14 17 18 16 17 21 22 23 25 30 35 35 36 38 38 38 37 34 34 31 26 27 29 33 35 27 23 27 28 28 31 33 33 33 34 33 30 26 25 25 26 26 27 29
14 11 9 10 11 11 11 9 9 9 9 10 11 10 11 10 8 9 10 10 13 21 25 21 19 25 24 14 13 13 11 15 14 12 12 11 13 15 16 16 15 15 16 17 19 22 21 19 22 27 31 30 28 34 36 32 34 38 38 43 46 40 33 26 23 28 30 34 36 28 25 29 29 29 30 32 33 34 34 30 26 24 24 26 27 28 29 31
13 11 9 10 10 10 10 9 10 10 11 14 10 14 25 22 14 12 10 11 16 21 22 20 18 20 17 13 14 13 13 15 14 12 12 12 14 15 18 19 16 17 23 29 28 23 22 29 34 33 33 30 25 29 32 31 33 38 43 47 44 37 31 22 22 28 29 34 35 26 28 31 30 30 30 31 33 33 33 28 25 25 27 28 29 31 32 35
13 12 11 12 11 12 12 11 11 10 11 12 10 20 32 26 20 19 15 15 16 18 19 17 16 15 13 13 15 14 15 15 13 12 12 13 14 16 19 20 19 21 27 34 31 22 23 35 37 29 25 24 25 31 32 33 36 40 45 41 34 33 30 21 24 29 26 33 36 25 28 32 30 30 30 31 31 30 29 26 26 27 28 30 31 35 37 42
13 13 12 12 12 12 11 10 11 10 10 10 11 18 20 14 18 20 20 21 17 18 21 17 16 16 14 13 15 15 16 17 16 12 11 14 16 21 24 21 24 27 26 30 31 27 31 37 31 23 22 26 32 36 34 34 37 41 39 34 32 33 32 27 27 28 25 31 36 28 29 33 30 29 30 31 31 29 27 25 27 27 29 32 35 39 43 46
13 12 11 11 11 10 10 11 10 9 9 9 9 11 10 10 14 18 21 23 21 22 18 14 16 15 15 14 14 16 17 18 19 15 12 15 17 24 29 25 27 29 26 29 29 28 34 33 23 21 29 33 34 35 36 35 34 36 33 33 36 34 36 38 32 28 29 35 39 35 37 38 33 32 32 32 31 31 29 28 29 30 32 36 39 43 46 50
14 13 13 12 11 11 11 10 11 11 10 9 9 8 9 9 10 15 21 22 24 23 17 15 17 16 16 15 13 18 20 19 19 17 15 16 20 24 27 28 32 33 31 32 30 31 34 27 21 28 34 32 30 34 40 39 33 33 35 35 35 34 36 37 34 32 32 40 44 37 38 40 37 36 35 33 32 31 31 31 32 35 37 39 42 47 51 55
14 14 13 13 12 12 12 12 11 12 11 9 9 9 9 10 11 13 22 27 25 24 25 22 18 16 16 17 17 19 22 22 21 21 17 16 23 28 28 27 30 35 39 36 31 32 31 23 26 35 33 28 31 37 41 39 35 35 38 35 31 33 37 36 37 40 38 40 40 33 39 45 39 35 36 35 32 31 31 31 33 36 37 41 48 50 51 52
14 14 13 13 13 12 18 21 13 11 14 11 9 11 9 12 13 10 23 34 27 26 31 25 20 20 16 18 20 19 26 28 23 21 19 17 23 30 34 29 27 38 43 37 31 31 29 25 30 37 34 30 32 34 35 37 39 37 35 35 33 33 40 42 43 48 46 39 32 29 38 45 40 36 36 35 34 32 31 30 31 33 36 45 52 50 47 46
14 14 13 14 13 12 18 22 14 11 18 16 11 12 10 13 13 12 28 39 30 30 31 21 21 23 17 18 20 21 30 32 24 22 21 20 22 28 36 33 32 38 38 36 37 34 32 31 34 38 34 32 33 32 32 33 39 39 32 33 34 35 42 45 44 49 44 36 33 29 32 39 39 38 37 34 36 35 32 33 34 35 42 49 51 46 43 45
13 13 13 13 13 13 13 14 11 10 15 16 13 13 14 14 11 18 37 37 25 26 27 22 20 18 18 21 20 21 27 28 27 27 24 23 22 25 35 36 35 36 37 41 41 35 36 37 42 47 38 31 32 31 29 31 37 37 32 33 34 37 43 42 46 49 40 40 43 32 30 39 38 38 40 37 37 38 38 39 38 40 46 49 48 47 46 47
12 13 13 13 13 13 11 11 11 9 12 14 14 14 13 13 14 27 37 30 25 27 25 25 22 18 23 28 26 25 26 27 28 29 27 25 23 23 30 34 33 35 38 41 42 41 39 34 40 48 39 31 31 28 28 35 37 31 31 36 36 40 45 46 49 44 38 48 49 32 29 39 41 39 40 41 39 40 42 40 40 44 48 49 48 49 49 46
13 13 13 13 12 10 10 10 9 10 11 13 15 14 12 18 28 34 29 25 34 34 25 26 25 23 30 35 32 28 29 31 29 29 28 24 25 24 26 28 29 35 40 41 46 47 38 34 41 41 33 29 30 28 28 32 33 31 35 35 32 36 43 48 43 35 42 52 42 29 27 39 48 38 34 47 48 43 44 42 43 47 49 51 49 48 46 41
14 13 12 11 9 9 9 9 9 10 11 13 15 13 17 29 35 31 25 28 37 33 29 35 34 30 36 38 34 30 33 33 28 33 36 28 28 29 27 31 34 38 41 39 46 51 45 45 46 37 30 31 31 31 32 33 33 36 36 32 32 34 35 40 36 37 52 50 33 28 28 38 52 42 38 55 55 47 48 48 50 51 50 51 50 48 44 36
12 11 10 9 8 8 8 10 11 11 12 14 14 16 28 36 29 25 25 28 35 36 35 42 39 34 37 37 35 37 40 34 26 35 46 40 39 41 38 42 46 44 37 32 40 53 54 49 44 36 31 30 31 30 35 40 36 32 30 32 43 44 41 44 41 44 52 42 29 29 33 42 46 40 43 51 50 49 50 50 52 52 51 51 49 48 44 36
9 8 8 7 9 8 8 10 11 12 12 13 15 23 33 32 28 33 30 24 34 41 41 43 39 35 39 38 36 39 40 35 31 34 40 38 40 46 43 41 48 46 35 29 31 40 46 44 41 40 34 27 26 26 31 36 33 30 31 38 50 52 53 56 49 48 51 41 30 28 39 51 43 35 41 42 43 46 45 47 51 51 50 49 47 45 43 37
7 7 7 7 8 9 9 10 11 12 10 13 22 31 29 23 28 36 31 28 37 42 43 42 36 35 40 36 34 38 37 36 40 38 36 32 31 39 40 38 45 46 39 34 30 32 41 43 41 40 34 27 28 29 33 39 40 35 27 33 46 47 51 59 55 55 59 49 39 37 43 50 44 39 39 35 37 40 42 47 50 49 47 45 44 42 41 36
7 8 8 8 8 9 10 10 11 11 10 18 30 34 28 22 24 29 31 37 38 37 42 44 39 38 37 35 35 38 37 37 40 39 35 34 34 37 40 39 42 46 48 44 37 35 38 40 41 36 27 26 30 31 34 42 44 36 26 34 47 43 41 53 53 48 56 61 54 46 41 37 37 40 37 35 38 37 41 48 49 46 43 41 42 40 37 33
7 8 9 9 8 9 12 11 11 11 12 26 36 34 32 31 32 37 43 46 40 37 42 43 43 36 28 33 35 33 38 38 36 34 33 38 42 39 40 46 44 44 48 46 40 39 38 39 42 37 31 29 29 30 33 38 37 32 32 38 43 38 36 53 58 43 49 66 56 41 40 36 37 42 38 38 41 37 38 45 45 42 40 41 40 36 33 29
8 9 10 11 9 9 12 12 12 12 15 30 38 33 33 37 41 48 50 47 42 40 35 31 40 37 24 28 30 28 38 42 34 31 31 38 46 41 41 49 45 37 41 45 43 38 40 45 43 40 42 37 29 30 31 31 34 36 38 36 36 40 38 47 61 56 57 67 51 37 44 48 48 52 45 40 42 38 36 39 41 41 41 40 37 33 31 28
8 11 13 12 11 11 13 13 14 15 19 32 36 30 34 43 48 52 52 47 45 43 34 27 38 40 25 24 27 28 37 39 32 29 29 34 43 43 42 45 45 39 38 46 47 38 41 50 42 34 41 40 34 37 35 32 33 33 33 32 37 51 53 47 56 64 68 73 60 44 47 50 50 51 46 42 40 37 36 39 44 45 40 35 33 31 30 27
12 19 22 14 10 13 16 16 15 17 25 36 37 33 40 51 54 53 49 47 47 42 33 29 34 35 29 27 28 30 35 36 29 28 29 32 40 46 41 40 46 44 38 43 47 40 39 48 44 32 36 38 35 38 40 39 39 36 34 35 36 46 52 49 51 58 65 72 70 60 56 51 42 40 40 37 36 36 39 42 43 41 35 34 33 31 30 28
13 23 27 14 9 13 15 16 19 27 38 42 39 39 45 54 58 53 42 43 49 39 29 30 32 30 31 30 28 28 32 33 29 28 29 30 39 48 46 42 46 46 43 44 46 42 37 42 46 41 39 39 36 35 33 31 38 43 43 44 43 43 47 50 54 56 58 68 75 73 68 52 35 31 32 31 32 35 38 41 40 37 35 36 34 31 31 29
13 25 28 13 8 10 12 19 26 33 39 38 40 45 50 55 61 56 41 40 49 40 30 36 37 31 30 30 30 30 29 28 27 28 28 29 37 48 53 57 58 55 51 47 47 47 39 39 46 46 42 41 38 34 29 27 33 37 39 43 46 46 52 60 64 60 58 62 66 72 73 55 33 27 28 29 31 33 34 37 38 36 36 36 34 32 31 30
18 30 26 12 9 10 18 33 36 33 37 42 48 52 51 52 57 57 48 42 46 40 33 38 41 37 37 36 33 32 31 29 28 29 30 34 47 58 61 61 62 61 53 45 46 47 42 43 50 49 43 40 36 30 29 35 36 32 32 35 41 48 53 60 66 65 64 60 55 66 78 59 33 26 28 28 28 29 31 35 36 36 36 37 35 31 30 31
24 27 19 10 8 9 24 44 45 41 47 52 52 51 50 50 51 53 51 45 44 40 36 42 45 42 43 41 33 32 35 33 32 34 31 36 58 75 73 64 60 59 53 47 48 47 44 46 51 50 43 38 36 31 30 37 39 37 35 33 42 52 50 54 61 63 69 67 57 70 82 60 33 28 27 25 25 28 31 34 35 37 36 37 35 30 28 31
15 16 12 10 9 11 29 48 49 48 50 49 48 48 47 47 48 48 47 44 42 36 34 41 44 41 44 43 36 36 40 36 36 40 31 32 54 71 69 63 59 58 59 58 56 54 51 45 44 54 53 44 44 42 39 42 39 36 37 36 43 52 53 59 63 63 72 68 57 73 81 53 32 30 26 25 28 30 32 34 34 35 37 38 35 29 28 31
13 17 12 9 8 11 29 43 43 47 50 47 47 47 43 43 43 43 46 46 39 34 36 41 42 40 44 45 41 41 42 36 36 41 33 34 56 68 59 53 59 68 70 61 53 54 56 46 40 52 59 53 53 52 48 46 40 35 39 42 48 59 64 63 61 69 79 65 54 69 70 44 30 30 29 30 33 34 34 35 34 35 38 39 34 28 27 31
20 27 27 22 14 11 22 31 31 41 49 45 42 40 39 44 45 38 42 46 38 34 38 40 39 39 42 48 46 43 45 42 37 39 36 36 56 71 60 50 61 76 73 55 44 49 55 51 44 47 52 51 50 46 41 40 41 41 45 51 58 66 67 61 59 68 71 62 57 58 53 45 40 35 33 34 35 37 37 35 36 38 39 39 33 27 28 31
19 32 34 31 27 23 24 28 28 34 39 36 36 38 37 45 50 43 42 47 43 39 40 39 39 42 42 45 44 40 46 49 41 40 41 40 52 67 67 63 65 67 62 51 44 49 57 61 57 50 49 49 44 38 36 38 40 39 43 53 65 72 71 68 66 60 53 59 61 45 39 48 45 34 35 37 36 39 38 35 38 40 41 39 32 26 29 31
23 29 23 22 37 41 35 34 33 33 34 31 33 39 41 44 49 46 43 45 44 43 44 43 44 48 44 38 37 38 44 49 47 48 50 47 50 59 67 75 75 65 61 56 48 50 59 62 61 57 52 46 41 38 37 39 40 39 40 46 58 73 78 72 64 54 50 60 58 40 37 46 41 34 36 37 37 37 35 35 38 40 41 39 32 29 31 31
21 22 15 17 35 38 33 36 36 35 36 31 30 39 42 42 45 44 41 44 46 43 43 45 45 45 42 38 37 37 39 43 43 48 56 55 52 54 57 69 79 72 62 56 49 48 56 61 62 62 57 49 44 44 43 42 42 41 42 40 42 57 71 70 63 55 52 56 49 40 46 47 40 38 38 36 35 34 32 35 38 40 43 38 33 32 32 32
21 22 16 17 26 25 24 32 35 38 35 28 32 40 39 41 47 44 38 40 45 45 42 43 46 44 42 41 41 40 42 43 37 39 54 58 54 55 50 52 71 76 60 54 54 51 54 61 58 55 57 53 45 44 45 44 42 39 38 38 35 40 51 60 62 59 59 61 54 50 59 56 42 37 37 35 33 32 34 37 39 42 44 39 34 33 33 33
18 17 13 22 31 26 23 25 27 35 36 30 36 40 36 41 44 41 39 37 39 45 45 42 45 50 49 46 46 47 47 47 42 38 44 44 43 48 44 39 56 73 66 60 63 60 57 58 53 51 60 55 40 40 43 39 41 45 43 41 37 36 43 48 51 55 60 62 60 61 64 58 42 35 35 33 32 34 37 39 42 45 44 39 35 33 33 33
13 12 10 23 35 28 23 24 23 30 34 33 40 44 40 39 34 31 35 35 33 39 42 41 40 45 51 53 54 54 48 43 42 39 37 37 36 37 37 35 44 62 71 68 67 67 63 59 52 52 63 59 40 39 43 43 53 58 52 48 43 38 41 41 39 45 48 48 54 59 54 43 36 35 36 36 36 38 40 41 45 47 43 38 35 33 33 31
Wind_Speed
6 8 8 8 8 9 10 9 9 10 10 8 8 9 9 9 9 9 9 9 9 7 5 4 5 7 11 15 17 14 17 16 12 14 16 19 15 11 10 9 9 8 8 9 11 10 7 5 2 2 2 3 2 4 4 5 10 7 3 2 4 5 5 5 6 8 8 7 10 15 14 10 8 8 10 13 12 13 13 12 8 6 8 7 2 3 7 6
6 7 7 7 7 8 9 8 8 9 8 6 8 10 10 10 10 9 9 9 10 9 7 3 3 6 7 12 14 12 14 13 13 19 19 15 11 9 8 8 8 8 8 8 9 10 8 6 4 3 4 1 4 5 3 5 10 4 2 3 4 4 6 9 10 12 11 8 10 12 12 11 7 10 12 10 12 16 13 18 20 17 18 9 1 4 5 4
5 6 6 6 7 7 8 8 8 7 5 6 8 9 10 10 9 9 8 8 9 9 10 6 4 6 6 9 10 9 9 8 14 18 14 12 11 10 9 9 8 8 9 8 9 8 7 5 5 5 4 2 6 4 3 7 8 3 3 2 5 5 6 13 13 13 11 9 10 10 11 10 8 12 11 8 9 12 13 16 20 20 22 11 3 3 4 4
6 7 6 7 6 7 7 7 7 5 5 6 7 9 8 8 7 7 6 6 6 6 8 8 4 3 5 5 5 6 4 4 11 14 10 11 12 11 11 10 9 9 9 9 9 7 5 3 4 5 4 1 5 4 5 7 6 4 4 3 6 7 6 12 14 12 10 7 8 10 9 9 12 12 9 11 8 7 14 16 18 16 19 10 5 3 5 7
7 7 7 7 6 7 7 7 7 6 6 6 7 7 7 6 5 4 3 2 3 4 6 9 8 5 4 3 3 3 4 1 7 9 7 10 11 11 11 11 10 10 10 10 10 7 5 4 3 2 3 3 6 5 6 8 6 4 5 7 8 8 5 10 12 11 9 7 8 9 8 8 12 9 12 16 8 6 12 17 20 17 15 8 5 6 8 9
6 7 7 7 7 8 7 7 8 7 7 7 6 6 5 5 4 3 3 1 1 3 6 8 11 14 12 9 7 8 5 2 5 8 7 9 10 11 11 11 10 11 13 12 9 6 4 5 2 2 1 4 6 5 5 7 7 2 5 9 7 6 5 7 9 10 8 6 8 9 9 10 8 8 17 19 13 10 14 19 20 16 12 7 7 9 10 11
6 7 7 7 7 7 7 8 8 7 7 6 5 5 4 4 5 6 4 2 1 3 6 7 10 14 16 15 13 12 10 6 6 6 6 8 8 9 10 10 11 14 13 10 10 7 5 7 6 4 2 4 5 5 5 5 5 3 3 7 6 4 6 6 4 7 6 3 7 12 11 10 7 8 16 19 16 15 15 18 17 14 13 10 11 12 13 14
5 6 6 7 7 6 6 6 6 5 5 4 4 5 5 5 7 8 7 5 4 6 7 7 7 9 10 10 7 10 13 10 8 6 6 7 8 9 10 11 12 13 11 9 10 7 5 8 7 5 1 4 3 3 5 3 3 4 3 5 6 4 9 5 2 6 6 2 10 16 11 9 10 13 16 15 15 15 13 16 16 14 14 14 14 15 16 15
5 6 6 7 6 5 4 4 3 3 2 2 3 4 4 5 7 8 9 9 9 10 9 8 7 6 6 4 2 5 11 10 8 7 5 6 8 10 11 11 10 10 9 9 9 8 7 7 7 5 2 4 3 2 5 3 2 3 4 4 6 5 9 4 5 10 5 4 16 16 9 9 11 11 13 13 14 13 13 17 16 15 16 16 16 17 16 16
5 5 6 6 5 3 3 3 2 2 2 2 3 4 3 4 5 6 8 10 12 13 13 13 12 11 7 5 4 4 7 9 8 7 5 7 8 10 11 9 10 10 8 9 9 10 10 8 6 3 2 3 2 3 3 2 1 5 5 5 6 4 6 3 9 13 4 7 22 15 8 9 13 8 6 11 14 11 16 19 16 16 17 17 18 17 16 16
5 5 6 5 4 4 3 3 2 2 2 3 4 4 4 4 3 4 6 8 11 13 14 15 16 17 12 12 13 7 8 9 7 7 7 8 9 9 9 9 9 10 7 8 10 11 11 11 8 2 1 2 3 4 3 2 1 5 4 4 3 6 4 3 9 14 5 8 22 17 9 6 14 10 6 11 12 14 19 19 16 16 17 18 17 16 15 14
5 5 5 4 4 4 4 3 3 3 4 5 6 6 7 7 7 8 7 8 8 9 10 9 10 12 12 19 20 12 10 10 8 9 9 8 9 9 9 9 9 10 8 7 10 11 12 13 12 9 6 3 2 5 2 1 2 3 2 2 2 7 4 3 10 13 8 6 19 17 6 6 9 9 9 11 11 16 19 17 15 16 17 17 16 16 15 13
7 6 5 4 4 5 5 5 5 5 6 7 7 8 8 8 8 9 9 10 10 9 8 8 10 10 9 14 18 16 14 13 10 9 10 9 9 8 9 10 9 9 8 7 10 12 14 14 11 12 13 7 2 3 2 3 4 3 2 2 2 2 2 6 10 11 8 7 18 14 2 5 6 9 11 11 12 16 17 15 14 16 17 16 16 16 15 13
7 6 4 3 4 6 6 6 7 7 8 8 8 7 6 6 6 6 6 7 6 6 5 4 7 10 11 10 12 18 18 16 13 8 9 10 8 7 9 10 9 8 8 9 9 10 15 17 12 9 12 10 2 2 2 3 2 1 2 2 4 2 3 6 9 8 6 8 17 10 1 4 6 9 12 10 12 17 16 14 14 15 15 16 16 15 14 13
7 5 4 3 4 6 6 6 6 7 7 7 6 6 6 6 6 7 6 6 5 6 5 4 4 5 8 7 9 17 18 17 15 10 7 9 9 5 6 7 8 9 9 9 7 8 13 15 16 13 13 13 3 2 2 1 2 4 3 3 5 3 5 3 7 8 6 8 15 8 1 3 6 9 12 11 14 17 15 14 14 15 16 17 16 14 13 11
7 6 5 4 5 6 6 4 4 4 4 4 4 5 8 9 9 9 9 8 8 7 7 7 6 5 5 5 8 14 17 17 16 13 9 8 9 5 4 7 9 10 10 11 10 9 9 8 12 14 15 14 6 2 2 3 4 4 4 2 5 4 5 4 4 7 11 9 12 7 2 1 5 10 13 12 14 16 15 14 14 14 15 15 13 12 11 9
7 7 7 7 6 7 6 4 3 2 2 3 3 4 5 4 4 6 7 8 8 8 7 5 6 7 7 7 7 11 15 16 15 16 12 7 8 7 6 6 8 8 7 9 10 7 6 6 6 8 12 11 6 4 4 4 5 4 4 2 4 4 5 5 1 5 13 8 7 7 2 4 6 9 13 13 14 15 14 13 13 13 14 13 12 10 8 7
7 8 9 10 10 9 8 7 7 9 11 12 12 11 8 6 5 4 2 2 3 5 4 5 3 5 7 10 9 8 11 16 17 16 9 5 7 7 8 6 5 3 2 2 8 8 6 7 5 3 7 8 7 7 5 2 3 3 5 4 3 4 5 5 4 4 9 6 5 7 2 6 7 8 12 12 12 13 13 13 12 13 13 12 11 9 7 5
8 8 9 11 12 12 12 13 13 15 16 15 14 14 13 14 15 13 10 7 6 5 3 7 7 2 2 9 11 5 6 16 18 15 7 3 6 7 7 4 1 2 4 1 6 9 7 6 5 4 6 7 6 7 4 2 4 4 5 4 5 6 4 5 6 3 5 4 4 6 3 6 6 6 9 10 10 12 12 12 12 13 12 11 9 7 6 3
7 8 8 9 9 10 10 10 10 8 7 6 5 6 4 7 10 13 18 20 18 12 7 9 10 6 3 9 14 6 5 13 15 15 10 4 5 7 7 3 2 5 4 1 4 6 7 6 5 5 4 4 4 4 2 3 4 5 5 5 6 6 5 8 8 1 2 2 3 5 2 6 6 5 7 7 8 10 11 12 12 12 10 9 8 6 4 2
7 6 5 5 5 6 6 4 2 1 1 1 1 3 3 2 1 5 14 18 17 16 14 14 13 9 6 9 15 12 8 9 10 15 11 5 4 4 6 3 2 4 3 1 3 5 7 7 5 5 4 4 3 2 3 4 5 5 5 4 4 5 7 10 7 0 0 2 3 6 2 5 5 4 6 7 6 7 9 11 11 10 9 7 6 5 3 3
6 5 4 4 4 3 3 2 1 0 1 2 1 2 1 3 5 7 10 8 11 13 12 13 13 10 8 7 12 14 12 8 10 16 13 9 8 4 6 7 4 3 1 3 2 3 6 6 4 5 6 4 3 3 6 9 5 5 3 3 3 4 7 8 5 4 5 4 4 7 3 4 5 4 5 6 6 6 7 9 10 9 8 6 4 2 3 6
6 5 5 5 4 4 3 1 1 2 3 3 5 6 8 9 9 8 8 6 7 9 8 11 13 13 12 7 7 11 13 10 11 17 17 13 12 9 8 6 5 5 5 4 3 3 4 4 3 5 6 5 2 1 7 9 4 2 1 3 5 5 6 5 5 9 10 5 3 5 3 2 5 4 4 5 6 6 7 8 8 8 7 5 3 1 5 9
5 5 5 5 5 5 4 3 1 1 3 5 7 8 8 8 6 5 4 2 3 5 6 9 10 13 15 11 7 7 9 12 12 16 17 14 10 7 7 5 4 5 5 6 8 7 4 2 5 6 5 4 4 4 7 6 4 2 3 0 6 7 7 7 7 10 9 4 3 4 4 3 5 4 4 5 6 7 7 7 7 6 6 5 2 3 7 9
4 5 5 6 5 5 5 5 5 2 1 4 5 4 5 3 2 2 3 1 2 2 4 6 7 10 13 13 11 6 4 9 13 16 15 14 10 4 2 4 3 3 3 4 6 7 4 2 4 6 3 6 6 4 6 4 5 3 2 1 7 8 8 10 9 8 5 2 1 2 4 2 6 7 5 5 5 6 7 8 7 6 8 4 2 6 9 11
3 3 4 5 5 5 4 4 6 3 1 2 3 3 1 1 2 3 3 1 0 1 3 4 5 7 10 13 13 6 1 5 10 14 13 11 11 5 2 3 3 4 3 2 3 3 2 0 2 4 2 6 6 3 4 4 4 4 3 6 8 7 7 9 8 5 2 4 3 2 1 3 3 6 6 5 5 5 6 8 7 8 7 1 4 7 11 15
0 1 3 4 5 6 4 3 5 3 1 1 3 4 4 3 3 3 2 1 1 1 2 4 3 6 8 12 14 3 1 5 5 11 15 10 10 7 3 3 3 4 3 2 2 0 1 2 3 4 2 5 5 3 3 3 2 4 7 11 11 9 8 7 7 4 3 6 4 3 3 5 3 3 5 6 5 5 5 6 8 9 4 3 5 10 14 17
2 2 4 5 5 6 5 4 4 2 1 1 1 3 4 3 3 2 1 1 1 0 2 3 2 6 6 10 16 8 3 8 3 9 16 12 11 8 3 4 3 3 2 1 1 1 3 4 3 4 3 3 4 4 3 2 0 5 10 12 12 11 9 6 4 4 4 4 3 1 2 4 5 1 4 5 4 5 7 6 7 7 3 3 8 13 18 20
4 5 5 7 8 7 6 5 4 2 1 0 1 1 2 1 2 1 0 2 1 2 1 2 1 6 6 5 12 11 8 9 5 9 14 11 12 8 3 4 4 2 2 1 2 1 1 3 3 3 2 1 3 5 2 2 3 8 11 13 12 10 8 4 3 4 4 2 2 2 2 4 5 2 4 4 4 4 5 4 3 4 3 6 10 15 20 21
5 7 8 9 9 8 7 6 4 2 1 1 1 0 2 1 1 0 1 2 1 2 2 4 2 6 8 1 5 10 7 7 8 11 10 10 14 11 5 4 4 2 3 5 4 3 3 4 3 1 0 3 5 7 4 6 8 10 9 10 10 6 2 4 2 2 1 1 2 1 4 5 4 1 4 2 3 3 3 2 3 3 5 8 10 15 19 20
7 9 10 10 10 8 7 5 3 1 1 1 1 1 2 1 0 1 1 1 1 1 1 3 2 4 6 1 2 8 5 4 8 9 6 7 12 13 6 3 4 2 2 3 3 2 2 2 1 2 1 4 6 5 4 8 10 7 5 6 7 4 2 2 1 2 0 3 2 4 6 3 4 2 2 3 4 5 4 4 4 4 7 8 10 15 19 20
9 10 10 10 8 6 5 3 1 2 2 2 2 1 1 1 0 1 1 0 1 1 1 1 1 2 3 2 2 4 2 3 7 5 2 2 5 8 6 3 4 1 2 2 0 2 2 2 1 3 1 5 5 3 1 3 5 4 4 6 5 3 2 1 1 1 2 5 1 6 8 2 5 2 3 5 5 6 8 7 4 4 5 8 12 15 18 22
9 9 8 7 6 4 2 1 2 3 3 3 3 1 1 1 1 1 1 1 1 1 0 0 1 1 2 1 2 3 0 1 5 4 2 1 3 3 6 7 6 1 1 3 3 1 1 1 0 1 1 6 5 3 1 2 4 4 4 5 3 3 4 4 3 2 4 5 5 9 7 2 4 2 3 5 6 9 10 7 4 2 4 10 14 16 20 25
8 8 7 6 5 3 2 1 3 4 4 3 2 1 1 0 1 0 0 1 0 1 1 0 1 2 1 2 1 2 1 1 3 5 5 2 3 2 3 7 9 4 1 3 3 1 1 2 2 1 1 3 4 2 1 1 4 3 1 3 3 2 1 2 3 4 5 7 10 8 2 2 5 3 4 6 8 9 9 7 6 5 8 13 15 18 22 23
8 8 7 7 5 3 2 1 3 4 6 4 1 1 0 1 1 0 1 1 1 1 2 1 1 2 1 3 1 1 2 1 2 4 4 3 2 3 2 4 7 5 2 1 1 1 2 3 0 3 2 2 2 1 1 0 2 3 1 3 2 1 2 2 4 5 6 7 7 3 3 3 2 1 3 6 6 7 8 10 8 8 12 16 17 19 20 20
7 8 8 8 6 3 1 1 4 5 6 3 1 1 1 0 0 1 1 0 1 1 1 1 1 2 1 2 0 1 2 1 2 2 2 2 2 2 1 1 5 5 3 1 1 1 2 2 3 2 3 3 3 1 1 1 1 2 1 1 1 3 3 1 5 6 5 4 4 3 5 4 1 1 2 4 5 6 9 10 8 11 16 15 14 17 18 20
7 8 9 9 7 3 0 2 4 6 6 2 1 1 1 0 0 1 2 1 1 1 0 1 1 1 0 1 1 1 1 1 1 1 1 0 1 2 2 1 2 4 3 1 1 1 1 3 4 4 1 1 3 2 3 4 3 1 0 2 0 3 3 1 3 3 2 4 4 4 7 7 4 3 3 5 5 5 5 6 8 13 15 12 13 17 18 20
7 8 8 8 7 2 2 4 5 6 3 1 1 0 1 0 1 2 2 2 1 1 0 1 0 1 0 1 1 1 3 2 1 1 0 0 0 1 1 1 2 3 2 1 1 1 1 2 2 2 2 3 3 2 1 4 7 3 4 1 1 2 1 1 2 3 3 5 5 5 7 7 4 3 3 4 6 8 6 5 8 11 10 12 17 18 18 20
6 6 5 6 5 1 3 5 5 3 1 1 2 1 0 1 2 2 1 1 2 1 0 0 0 1 1 1 0 1 1 2 2 2 0 0 1 1 1 1 1 2 2 2 1 0 1 1 2 1 3 4 2 1 1 1 5 3 3 1 1 2 2 1 0 1 2 4 5 7 8 5 3 4 4 5 6 7 7 4 5 7 12 19 22 21 20 20
5 3 3 5 4 2 3 5 4 2 1 0 1 1 1 2 2 2 1 1 1 1 1 0 0 1 1 1 0 0 1 1 2 2 0 0 0 1 2 2 1 1 3 3 1 2 1 2 2 1 3 3 2 0 0 1 0 0 1 1 1 0 1 1 0 1 2 2 2 6 9 7 3 3 3 5 6 7 6 4 4 9 17 21 21 21 21 19
4 2 2 4 2 3 4 4 4 4 1 1 2 1 1 2 3 2 1 1 1 0 1 1 0 1 1 1 1 0 1 2 1 1 1 1 1 1 2 2 2 2 2 1 1 2 1 1 2 2 2 1 1 1 4 2 1 1 1 2 2 1 2 1 2 0 1 2 2 2 9 10 5 2 3 5 7 5 9 9 8 13 19 20 20 20 19 18
4 2 3 5 2 3 3 4 4 4 1 1 2 2 2 2 3 2 1 2 0 1 0 0 1 1 1 1 1 1 1 1 1 0 0 1 2 2 1 2 1 1 1 0 2 1 1 1 3 4 3 0 2 2 5 6 4 2 1 2 3 3 3 2 3 2 0 2 2 2 6 8 2 5 6 6 4 10 14 11 11 16 20 19 19 19 18 15
2 3 5 5 2 4 3 2 3 4 3 2 2 3 3 2 2 2 1 1 1 1 1 1 1 2 1 1 0 2 1 1 0 1 1 1 2 1 1 1 1 1 0 0 2 2 1 1 2 4 2 1 1 2 4 7 5 1 2 3 3 3 3 3 1 1 1 3 2 2 5 7 2 6 7 7 10 15 13 10 13 17 18 18 19 19 16 14
2 4 4 3 2 5 1 1 2 2 2 2 2 3 3 2 2 2 1 1 1 1 1 1 1 2 1 1 1 1 1 0 1 2 1 1 1 2 2 2 2 2 2 1 1 2 1 1 1 3 4 2 2 2 2 3 1 2 2 4 4 4 5 4 3 3 1 5 5 3 6 8 4 3 8 12 13 14 11 10 14 17 16 19 20 18 15 14
3 3 2 3 1 4 2 1 4 4 3 3 3 1 1 2 2 0 1 1 1 1 1 1 2 2 1 1 1 1 1 0 1 1 1 1 1 2 2 2 3 3 3 1 1 1 1 1 1 1 2 3 4 3 2 1 2 2 2 5 5 6 8 3 2 2 2 5 6 5 8 13 12 9 12 12 10 13 12 10 13 17 18 19 19 17 15 14
3 2 1 3 2 1 2 3 6 7 5 4 2 1 2 1 1 2 1 0 0 1 2 2 2 2 1 0 1 2 2 1 1 1 1 1 1 1 1 3 4 2 1 1 2 1 1 3 4 5 5 5 5 6 4 3 4 5 3 6 6 6 8 5 2 3 4 3 6 9 11 17 20 16 14 13 12 12 11 10 15 19 19 19 18 17 16 15
2 1 1 1 2 3 5 5 6 6 5 5 2 2 4 2 1 2 1 1 1 2 1 1 2 2 2 2 2 2 3 2 2 1 1 0 2 2 1 3 4 3 1 2 1 1 0 3 4 5 8 8 8 11 9 6 8 10 8 7 8 8 8 7 7 9 3 2 7 11 9 13 20 19 16 15 13 10 8 11 16 19 19 19 19 18 17 16
2 1 1 1 0 1 2 2 4 5 5 3 1 2 4 4 2 2 1 0 1 2 1 1 2 4 3 2 1 1 2 2 2 2 0 0 1 2 2 2 3 4 4 3 2 2 0 4 1 1 7 10 10 13 13 9 9 10 10 8 7 10 12 12 14 13 5 4 12 15 12 14 19 20 17 16 14 11 10 14 17 19 20 20 20 19 17 15
2 1 1 1 1 2 2 3 5 5 5 3 1 2 4 5 4 2 2 2 1 3 3 1 3 6 5 2 1 1 1 2 2 1 1 2 2 2 2 1 3 6 5 4 2 2 1 2 1 1 7 11 12 13 11 8 9 9 10 11 9 10 14 15 15 13 10 13 18 19 20 20 19 18 17 18 18 16 15 17 18 19 20 21 20 17 15 14
3 2 0 2 3 4 4 5 5 3 2 1 1 3 4 5 5 3 3 3 1 2 5 3 2 4 4 3 3 2 1 2 2 3 3 3 2 2 3 1 3 5 5 3 2 2 2 1 0 0 6 10 9 8 7 7 9 10 11 11 10 10 11 13 14 11 9 14 18 16 18 19 16 14 15 17 18 17 18 19 19 18 19 20 19 15 13 14
5 5 2 2 2 3 3 3 2 0 0 1 1 3 3 5 7 6 2 3 2 3 5 4 3 5 3 2 5 2 2 4 3 3 6 5 3 3 3 1 5 6 4 2 2 2 2 1 1 2 4 7 4 2 5 7 8 11 13 13 12 11 9 9 10 8 8 11 12 11 11 13 11 8 10 15 16 16 16 18 18 19 19 19 16 13 13 16
4 4 4 2 1 2 2 1 0 0 0 1 1 3 2 2 8 9 2 2 3 3 4 4 4 4 2 2 5 3 2 2 2 3 5 6 4 3 2 2 4 6 5 3 1 1 2 1 2 2 2 5 2 3 8 8 7 7 9 9 10 11 10 9 8 9 11 10 7 7 10 11 10 10 11 13 13 13 15 17 18 20 21 18 15 14 15 18
Wind_Direction
75 68 68 60 61 78 84 82 80 69 62 63 66 68 71 82 94 102 98 85 78 72 68 85 89 89 95 96 91 85 76 63 52 65 60 44 35 29 34 40 45 47 50 42 25 1 352 35 23 338 299 277 55 26 15 0 334 317 268 348 34 36 32 10 16 32 10 357 355 348 2 4 341 2 356 347 347 327 337 12 19 21 7 343 339 300 300 306
75 69 68 58 60 77 81 80 76 63 58 66 74 75 77 86 96 101 97 86 76 61 50 60 151 121 111 106 100 96 87 71 51 54 52 44 42 42 40 42 40 39 38 41 41 14 7 41 23 326 285 281 63 15 27 357 338 345 320 14 59 27 30 33 32 35 19 354 344 342 351 345 352 7 348 347 343 339 8 28 23 22 10 355 248 317 323 351
91 81 74 65 65 75 76 75 70 59 57 75 85 85 87 92 97 100 100 92 75 59 52 56 129 139 126 110 102 96 93 77 42 38 42 49 51 46 42 43 36 35 35 41 56 39 27 33 4 344 312 79 61 13 39 8 348 7 355 37 62 17 34 44 40 36 18 348 339 339 338 332 357 355 338 347 337 357 41 31 19 20 9 7 146 353 4 73
94 87 82 78 77 79 76 72 69 60 62 89 99 95 96 96 98 99 98 92 70 57 55 55 76 155 166 136 116 92 87 78 31 19 31 47 48 48 44 44 40 41 41 43 47 39 29 1 349 358 325 80 64 50 49 20 356 335 356 62 46 19 24 45 45 30 11 353 343 335 336 337 342 339 343 2 352 24 45 33 23 16 9 24 131 66 58 98
85 85 86 90 94 91 83 78 75 68 74 100 108 101 100 92 90 89 86 82 57 60 60 57 62 89 137 159 155 33 346 56 24 5 28 42 45 48 47 47 46 52 49 40 23 3 353 313 281 300 293 40 46 61 53 21 352 319 52 65 51 33 17 44 41 20 13 4 353 340 344 334 325 351 25 24 38 56 33 23 15 8 12 34 114 90 86 96
81 84 91 98 98 90 82 81 80 78 81 95 106 102 97 83 67 57 57 62 59 77 76 71 72 83 93 91 80 37 16 86 8 355 22 34 43 44 47 48 50 55 41 31 19 0 356 332 324 347 331 55 35 40 44 15 359 348 72 51 48 42 33 55 35 16 18 7 2 340 327 320 315 24 45 50 62 46 28 22 18 20 27 55 97 91 94 93
82 84 92 92 86 81 83 89 83 80 79 84 97 97 93 78 62 53 48 59 90 103 94 94 84 83 90 88 80 63 63 65 1 352 10 22 37 35 42 44 49 48 29 29 31 19 17 12 28 18 8 76 32 30 32 7 19 22 48 36 21 40 69 74 42 17 15 16 2 334 321 343 8 52 55 59 50 31 32 33 33 38 45 74 90 91 100 96
87 89 90 84 77 77 89 98 87 77 76 82 91 94 94 80 73 65 58 69 92 101 99 103 94 85 88 89 92 64 43 25 9 10 7 20 29 28 37 37 48 47 23 31 30 15 29 26 24 5 41 79 22 23 18 348 59 19 3 13 341 60 78 76 95 20 11 48 354 340 340 21 63 79 64 53 33 27 42 49 48 52 61 79 87 96 101 94
92 93 87 79 74 78 93 98 83 68 65 74 85 91 96 92 88 73 65 75 88 96 95 93 91 82 70 45 62 49 19 7 17 17 8 22 21 25 34 33 53 56 22 32 44 46 55 38 28 22 80 88 44 56 16 342 77 359 320 329 323 85 80 65 56 18 27 38 349 343 355 33 79 86 69 46 20 26 55 61 58 63 73 82 90 97 95 87
86 83 79 74 72 86 98 89 65 46 52 55 77 92 99 105 106 84 78 83 88 92 91 89 80 67 58 37 55 52 9 14 23 17 13 23 23 26 31 33 60 67 29 29 60 68 65 54 38 39 98 84 71 93 43 359 5 306 287 304 313 105 100 103 48 21 67 28 352 344 341 36 69 65 62 29 14 46 72 68 66 73 81 87 93 92 87 84
93 86 84 82 89 98 90 78 61 48 57 63 84 100 100 103 111 102 99 96 94 95 93 91 79 67 64 68 71 55 19 30 29 25 26 25 29 29 34 43 62 76 50 32 62 72 76 65 40 53 132 36 70 110 98 46 309 279 280 293 274 143 138 137 57 27 52 17 351 337 320 55 72 56 44 19 27 74 78 74 75 82 89 91 91 87 86 86
106 97 91 92 97 99 94 85 79 77 80 88 97 99 95 92 90 91 96 98 96 99 97 87 77 72 62 59 58 42 32 41 33 27 28 30 39 37 39 48 57 74 69 53 71 70 76 72 47 49 51 2 86 113 137 277 252 238 253 274 168 152 175 125 75 34 37 11 345 336 332 83 67 48 41 26 53 80 78 80 84 90 94 93 92 90 89 90
100 94 89 90 101 109 106 96 90 89 92 100 99 94 94 88 84 84 88 95 91 90 97 80 72 75 65 58 47 36 38 39 34 29 30 33 44 47 41 47 52 62 72 78 86 75 70 70 49 44 40 22 86 104 165 222 229 222 249 296 55 150 190 91 75 29 32 20 353 348 35 99 61 47 40 33 67 83 80 85 92 97 97 95 96 92 89 88
94 86 76 83 116 124 120 105 93 90 96 100 93 90 91 82 78 79 85 96 89 77 79 73 72 62 61 70 40 33 35 29 30 35 39 37 38 40 26 35 53 63 79 86 92 81 67 59 44 36 25 19 80 149 165 200 221 325 314 328 28 12 339 65 76 35 34 15 0 357 36 95 77 50 36 41 73 84 83 89 98 100 100 99 96 92 91 90
86 72 65 93 130 138 135 117 94 87 96 94 81 78 86 88 78 70 72 74 73 70 68 79 95 67 61 68 30 28 28 21 23 28 37 34 32 34 7 28 67 79 81 74 75 80 73 60 52 47 19 11 30 172 157 124 63 36 16 348 14 11 316 13 86 58 37 360 356 352 246 94 84 53 41 51 72 86 90 95 100 103 104 101 97 98 98 96
80 67 71 104 132 146 149 138 113 91 93 97 83 83 96 96 79 69 72 69 69 76 82 86 87 87 76 57 26 22 20 17 19 25 30 28 29 35 31 59 90 92 78 63 55 60 65 58 55 50 29 20 8 336 84 62 32 28 42 357 337 348 310 322 114 66 40 15 347 332 255 107 87 58 47 54 72 87 95 99 103 105 104 102 103 106 105 105
78 74 81 94 113 139 147 142 124 80 77 106 98 98 116 108 60 57 75 80 72 60 64 80 94 97 74 42 19 4 10 19 22 24 26 30 35 40 52 86 113 94 70 53 39 26 19 15 41 48 34 34 8 356 68 43 357 349 16 329 313 337 305 312 197 43 38 32 332 307 275 93 88 63 50 56 74 89 97 100 104 105 105 106 108 110 111 113
84 83 85 86 95 111 120 118 109 99 94 93 91 89 89 75 46 43 86 133 74 34 22 34 76 114 61 22 360 338 4 26 23 17 16 27 41 53 64 88 124 88 330 13 24 9 10 24 44 62 32 36 24 26 67 37 327 305 335 311 306 322 285 305 327 6 28 20 320 306 307 94 86 66 55 57 77 94 99 102 105 107 108 110 110 115 119 117
90 92 94 93 96 100 107 110 107 103 96 92 93 86 79 75 71 67 73 88 76 53 2 16 31 101 43 7 4 341 18 33 22 10 10 18 37 59 51 39 114 342 282 209 45 25 37 51 51 49 23 24 29 33 46 351 309 288 303 288 286 300 279 315 336 11 26 351 303 305 325 95 84 67 61 58 80 98 105 108 109 109 109 113 119 127 135 146
94 101 107 105 103 100 105 110 107 101 90 92 89 64 58 73 69 64 66 72 75 73 64 51 52 65 56 15 21 27 41 38 23 11 14 9 28 49 25 327 164 48 8 53 60 49 59 65 52 35 9 9 24 22 1 306 293 276 266 266 284 301 304 322 328 57 78 337 267 290 319 103 91 77 73 66 84 100 109 113 110 112 116 125 136 143 158 208
96 102 111 109 104 100 106 115 116 164 159 178 354 357 324 312 73 85 73 70 72 71 64 60 58 48 39 28 31 39 37 31 20 18 20 7 13 38 15 8 115 58 60 103 70 82 66 62 61 29 355 357 346 314 327 303 276 261 253 263 296 315 312 311 315 284 38 335 279 282 285 114 104 98 92 83 85 95 112 122 120 126 136 145 151 158 195 279
96 94 96 92 85 87 97 103 72 115 200 229 274 10 44 115 124 110 95 84 68 67 60 55 55 41 29 32 34 38 35 18 7 16 25 36 50 58 18 34 69 27 110 144 117 95 62 61 67 11 344 332 264 252 345 331 283 241 259 314 315 322 319 303 308 344 336 320 286 292 305 120 118 104 97 98 96 95 114 129 133 142 149 151 161 197 285 310
96 87 82 75 68 65 62 49 70 72 64 90 107 103 108 112 113 102 101 112 77 65 58 49 48 36 26 21 23 37 42 32 3 4 17 35 50 47 18 31 74 38 33 55 64 83 67 62 31 337 314 318 294 81 7 340 308 196 122 348 315 329 339 305 311 325 312 298 293 297 293 148 129 109 102 113 117 119 124 131 143 155 158 172 193 276 321 321
93 82 73 64 62 58 49 42 48 69 66 95 109 111 114 109 104 92 75 114 102 65 49 38 34 29 23 15 13 30 41 37 16 2 10 22 28 30 23 26 60 57 48 61 79 84 73 39 348 313 283 331 358 42 25 350 339 29 124 15 322 333 327 296 305 314 304 311 335 300 276 203 166 166 150 138 144 146 147 151 160 169 181 203 224 341 330 323
94 79 64 54 56 51 46 42 35 39 121 128 131 126 121 109 86 21 343 153 128 49 33 26 19 17 14 12 8 6 27 33 23 6 5 17 16 17 46 24 33 62 52 61 91 89 67 34 342 313 308 18 11 28 34 360 329 332 170 312 330 326 310 300 311 319 312 303 306 326 311 244 178 176 164 156 166 162 171 182 186 198 207 218 341 344 330 328
96 72 47 42 44 35 38 29 14 23 138 164 190 202 201 283 298 315 311 205 165 357 7 1 7 10 10 11 1 342 21 31 20 10 7 16 19 21 37 17 55 72 42 41 87 91 67 72 298 284 312 22 16 24 45 27 337 312 285 321 324 314 303 301 314 329 329 295 284 93 342 279 199 173 163 163 180 181 191 206 211 214 219 273 3 335 333 335
76 40 8 13 20 17 27 3 344 2 128 231 225 230 258 279 286 314 307 225 270 317 14 1 13 14 13 17 14 19 209 346 360 14 14 20 23 31 45 27 70 73 50 56 59 341 11 46 348 315 359 37 17 357 20 35 344 290 303 320 320 314 301 292 309 310 278 299 302 135 170 277 284 178 160 160 181 197 203 219 216 217 237 347 324 320 335 338
298 314 325 337 346 350 356 347 336 345 325 296 257 247 264 263 254 306 314 229 291 43 19 14 34 16 19 29 35 62 40 1 3 8 12 22 25 29 58 38 55 89 90 112 98 324 352 32 10 345 11 36 1 319 325 37 269 268 295 311 306 296 282 266 287 282 278 316 308 181 176 279 289 201 148 163 199 216 215 221 213 211 240 302 308 329 343 339
295 302 312 319 327 329 328 331 332 332 318 325 10 272 228 214 246 297 306 242 16 76 16 14 30 1 1 30 42 47 33 24 17 357 13 27 20 24 103 63 50 92 68 44 121 144 24 48 29 360 12 7 316 298 297 131 225 269 290 302 293 276 257 225 211 255 292 347 266 270 14 331 294 224 147 184 234 221 203 208 180 169 233 288 316 338 340 333
298 302 311 315 319 320 316 316 313 309 283 182 30 164 179 184 252 337 246 248 40 69 5 18 11 340 341 338 55 30 28 36 4 353 16 30 23 33 94 82 33 49 42 28 53 98 118 91 55 51 63 310 293 284 251 205 244 278 297 306 300 288 196 157 182 219 306 310 197 174 38 15 307 239 120 168 211 155 153 208 174 171 268 292 321 339 336 332
308 311 315 317 318 317 310 307 294 253 148 169 160 136 167 188 24 203 242 237 59 350 347 32 23 341 350 86 70 10 11 32 4 1 11 18 22 28 45 42 5 35 80 23 43 81 115 108 88 150 191 319 303 285 220 214 251 287 312 319 322 332 101 143 186 109 28 272 167 72 27 2 263 265 104 171 184 151 166 209 211 241 282 305 328 331 329 332
319 320 321 322 325 325 310 291 257 181 155 145 160 154 206 277 344 181 234 340 358 329 10 64 37 344 353 68 59 5 359 354 358 9 7 12 31 28 44 41 341 36 98 351 319 142 176 206 184 167 187 342 328 322 123 219 281 326 340 341 349 348 7 348 300 111 251 254 216 19 3 305 236 239 150 178 184 176 188 197 206 243 300 329 325 317 319 327
332 332 331 334 338 344 331 240 182 170 158 141 172 210 293 275 260 148 84 355 300 329 74 92 14 291 283 23 32 355 325 296 339 344 318 86 91 68 76 56 9 326 129 349 344 359 294 262 260 178 335 3 4 6 28 317 333 358 357 358 14 14 359 334 310 313 275 261 297 331 343 292 257 252 175 183 183 188 196 193 193 233 315 322 313 310 319 325
342 344 345 351 355 3 23 155 168 165 162 163 201 257 9 279 252 237 184 63 95 171 129 72 310 272 310 60 54 356 35 223 327 337 328 21 75 53 57 39 19 7 331 358 15 4 293 266 316 328 318 2 29 63 137 295 315 312 4 45 49 64 22 306 310 322 301 290 300 306 298 286 292 260 180 172 173 192 207 199 203 244 303 317 314 316 320 323
340 351 356 358 358 360 21 141 172 166 166 175 220 269 324 210 177 190 208 127 106 170 137 98 270 254 68 78 82 21 52 61 341 357 1 17 33 13 1 5 10 11 353 2 49 313 264 236 258 26 38 60 67 139 204 113 286 271 128 80 43 116 173 257 267 260 271 289 297 281 218 261 279 196 152 158 176 203 209 200 213 269 305 312 313 319 324 328
328 343 352 353 351 346 4 169 176 166 169 183 277 236 216 210 132 20 2 98 100 91 132 144 276 280 147 116 43 8 36 12 332 359 35 38 30 36 48 4 358 8 32 53 49 353 299 250 169 90 35 57 93 124 308 41 244 277 19 56 193 147 151 247 268 255 250 265 286 290 287 298 340 241 191 183 203 210 203 203 229 284 298 298 312 330 334 333
326 334 342 348 346 330 190 160 168 167 178 208 334 234 218 108 349 8 21 14 32 52 107 209 295 8 82 105 63 2 344 358 324 339 124 126 33 29 55 79 359 7 47 56 36 129 294 282 196 164 102 106 116 87 9 5 347 293 159 288 261 111 119 196 273 287 276 274 282 284 292 307 320 297 228 209 240 259 235 221 247 271 276 293 328 338 334 331
331 335 337 347 350 333 158 145 150 159 190 266 103 153 269 129 51 48 51 15 28 56 303 256 356 62 49 14 79 308 338 9 14 9 126 198 356 348 28 82 33 22 37 355 353 153 204 292 241 187 136 151 142 90 25 346 354 51 145 209 37 99 247 257 292 318 317 308 300 285 292 296 277 262 256 259 291 304 284 239 245 260 279 330 344 340 336 335
343 346 337 347 360 38 146 141 139 150 241 264 163 165 63 93 70 64 83 54 46 44 6 199 54 81 59 34 153 246 9 22 334 328 120 151 337 343 22 96 95 47 17 349 5 303 167 124 272 288 102 132 155 69 155 287 354 42 124 105 79 164 222 211 357 300 263 295 305 306 308 295 223 221 262 289 301 297 287 261 268 311 345 348 345 343 340 335
359 356 319 331 356 63 122 135 118 76 344 29 125 133 81 104 97 70 65 79 77 10 12 24 198 124 90 85 164 347 122 182 291 303 281 6 15 29 40 47 65 39 7 358 344 317 321 149 258 326 77 113 171 294 41 166 102 63 164 147 79 213 167 134 165 157 187 256 289 312 304 285 243 202 228 277 276 276 308 338 341 355 355 346 342 340 334 329
353 326 297 320 337 106 104 104 74 47 81 101 60 53 70 117 119 94 57 78 79 5 25 18 79 115 84 105 145 190 239 222 245 297 334 56 66 21 48 51 24 8 359 357 298 313 316 234 290 291 289 279 156 355 356 25 77 93 143 157 159 169 102 76 290 201 140 223 196 292 294 284 272 191 195 235 250 298 356 11 3 354 348 341 340 335 327 325
341 298 301 317 272 159 103 67 42 30 63 96 63 73 92 116 122 109 88 100 106 274 232 42 33 56 46 59 128 151 239 257 220 245 328 94 65 34 81 72 43 61 349 352 121 65 22 286 286 273 270 38 88 16 20 37 45 59 105 141 141 151 145 164 261 280 284 248 198 197 268 276 243 163 194 222 274 346 5 18 4 347 342 337 335 331 326 322
325 294 305 312 230 162 115 69 50 40 50 78 69 75 79 76 104 134 154 173 195 249 217 145 31 31 41 12 124 141 137 293 231 70 59 81 75 93 116 63 87 122 338 162 114 58 23 217 256 270 273 82 73 345 27 35 30 351 205 165 150 154 149 154 184 31 339 249 216 185 251 270 232 176 221 282 331 345 357 12 355 340 336 336 333 330 327 319
303 296 315 332 192 177 150 59 111 92 95 124 88 75 74 54 70 129 162 178 171 305 313 133 87 66 71 355 345 99 100 42 58 65 78 55 90 164 162 125 117 68 28 113 63 2 344 170 230 297 298 317 348 338 354 12 338 239 204 168 163 126 98 78 85 86 306 232 204 198 252 267 264 221 282 312 331 336 342 353 344 337 336 336 333 329 323 315
318 303 326 12 226 207 215 70 129 131 135 137 114 125 134 73 53 104 96 105 110 359 2 104 98 86 88 30 15 62 80 122 59 57 108 61 73 164 187 173 132 70 33 110 80 12 304 273 266 289 304 309 315 310 311 320 259 252 148 159 169 139 136 130 108 145 247 225 197 210 260 279 292 295 303 316 325 325 329 337 337 337 337 334 331 328 323 316
329 302 310 8 19 140 108 98 125 131 148 157 126 161 185 117 79 181 144 41 226 86 72 107 117 106 109 165 202 185 169 131 74 25 208 142 108 129 217 192 159 108 27 91 86 84 307 288 249 236 245 257 273 277 298 338 293 277 230 188 183 166 167 153 111 206 228 230 234 236 250 278 293 299 307 317 320 319 325 337 336 334 333 332 330 326 320 314
316 278 287 345 29 73 77 86 110 124 156 176 145 141 159 127 107 169 178 291 190 146 90 110 157 167 165 175 218 202 169 133 106 104 273 205 97 81 185 189 191 211 172 111 100 104 258 271 251 241 249 254 271 279 288 302 277 267 263 223 183 171 173 166 195 225 227 4 273 256 245 272 289 298 304 310 316 318 322 330 330 328 329 329 328 324 317 309
318 277 276 257 291 49 68 81 104 114 127 137 120 140 150 145 160 189 198 234 196 192 189 172 216 225 204 174 256 181 157 172 179 167 260 232 118 116 172 192 208 201 152 122 133 106 132 266 260 234 264 267 272 274 274 272 261 254 256 245 202 180 181 194 222 235 221 229 258 270 281 281 284 291 298 303 306 309 316 322 324 325 326 327 325 321 313 305
316 309 257 196 127 78 117 132 123 121 108 90 111 189 177 172 178 179 133 126 233 219 194 210 233 213 199 170 147 206 193 198 213 212 153 164 189 193 190 203 193 187 171 147 158 151 163 258 275 281 283 282 273 267 259 247 254 256 250 248 235 207 197 208 233 239 227 238 255 272 284 280 276 281 288 293 297 304 315 321 324 324 324 324 322 316 305 301
278 293 174 136 98 77 96 124 135 140 125 90 208 199 189 188 184 163 145 168 191 179 185 217 210 164 161 167 186 234 322 130 175 220 177 157 195 218 209 193 141 176 196 171 146 183 185 221 49 29 296 293 280 267 246 227 245 263 262 252 244 238 226 223 236 239 234 248 256 264 275 276 274 273 274 282 295 311 320 321 322 322 320 319 317 307 298 301
269 272 244 144 97 89 105 128 141 354 174 205 218 181 196 215 189 160 151 204 193 151 177 189 144 120 101 204 214 227 62 104 136 175 179 180 197 196 194 144 118 150 192 182 141 170 179 248 328 48 315 291 274 245 259 259 262 268 270 262 244 240 237 224 226 217 207 237 258 264 267 271 278 284 280 289 306 316 318 319 318 315 316 316 309 299 296 305
281 265 223 193 114 136 156 170 198 334 234 223 161 157 192 213 167 155 156 246 196 169 183 173 139 143 150 214 218 200 118 156 190 183 197 208 213 201 198 184 146 150 167 158 139 178 164 273 322 40 304 279 306 326 298 303 306 275 260 245 225 225 235 236 238 223 209 221 254 261 258 267 289 305 300 301 311 316 314 316 315 312 313 311 300 291 297 308